Time,TemperatureF,DewpointF,PressureIn,WindDirection,WindDirectionDegrees,WindSpeedMPH,WindSpeedGustMPH,Humidity,HourlyPrecipIn,Conditions,Clouds,dailyrainin,SoftwareType,DateUTC
2013-07-30 00:00:00,54.0,51.7,30.10,ESE,119,0.0,0.0,92,0.00,,---,0.00,VWS V14.01,2013-07-30 05:00:00,
2013-07-30 00:30:00,53.2,51.2,30.10,ESE,119,0.0,0.0,93,0.00,,---,0.00,VWS V14.01,2013-07-30 05:30:00,
2013-07-30 01:00:00,52.7,50.7,30.08,ESE,119,0.0,0.0,93,0.00,,---,0.00,VWS V14.01,2013-07-30 06:00:00,
2013-07-30 01:30:00,52.3,50.6,30.08,ESE,119,0.0,0.0,94,0.00,,---,0.00,VWS V14.01,2013-07-30 06:30:00,
2013-07-30 02:00:00,52.5,50.8,30.08,ESE,119,0.0,0.0,94,0.00,,---,0.00,VWS V14.01,2013-07-30 07:00:00,
2013-07-30 02:30:00,52.1,50.4,30.08,ESE,119,0.0,0.0,94,0.00,,---,0.00,VWS V14.01,2013-07-30 07:30:00,
2013-07-30 03:00:00,51.7,50.0,30.08,ESE,119,0.0,0.0,94,0.00,,---,0.00,VWS V14.01,2013-07-30 08:00:00,
2013-07-30 03:30:00,51.4,49.7,30.08,ESE,119,0.0,0.0,94,0.00,,---,0.00,VWS V14.01,2013-07-30 08:30:00,
2013-07-30 04:00:00,51.6,49.9,30.07,ESE,119,0.0,0.0,94,0.00,,---,0.00,VWS V14.01,2013-07-30 09:00:00,
2013-07-30 04:30:00,50.6,48.9,30.08,ESE,119,0.0,0.0,94,0.00,,---,0.00,VWS V14.01,2013-07-30 09:30:00,
2013-07-30 05:00:00,50.5,49.1,30.08,ESE,119,0.0,0.0,95,0.00,,---,0.00,VWS V14.01,2013-07-30 10:00:00,
2013-07-30 05:30:00,51.3,49.9,30.09,ESE,119,0.0,0.0,95,0.00,,---,0.00,VWS V14.01,2013-07-30 10:30:00,
2013-07-30 06:00:00,52.1,50.7,30.09,ESE,119,0.0,0.0,95,0.00,,---,0.00,VWS V14.01,2013-07-30 11:00:00,
2013-07-30 06:30:00,53.6,52.5,30.10,ESE,119,0.0,0.0,96,0.00,,---,0.00,VWS V14.01,2013-07-30 11:30:00,
2013-07-30 07:00:00,55.3,54.2,30.10,ESE,119,0.0,0.0,96,0.00,,---,0.00,VWS V14.01,2013-07-30 12:00:00,
2013-07-30 07:30:00,59.6,58.5,30.09,SSE,159,0.0,1.0,96,0.00,,---,0.00,VWS V14.01,2013-07-30 12:30:00,
2013-07-30 08:00:00,63.3,60.6,30.09,South,187,0.0,5.0,91,0.00,,---,0.00,VWS V14.01,2013-07-30 13:00:00,
2013-07-30 08:30:00,65.6,59.6,30.09,SE,142,0.0,9.0,81,0.00,,---,0.00,VWS V14.01,2013-07-30 13:30:00,
2013-07-30 09:00:00,66.2,60.2,30.09,SE,128,0.0,6.0,81,0.00,,---,0.00,VWS V14.01,2013-07-30 14:00:00,
2013-07-30 09:30:00,67.7,61.3,30.08,SSE,147,0.0,6.0,80,0.00,,---,0.00,VWS V14.01,2013-07-30 14:30:00,
2013-07-30 10:00:00,68.6,60.7,30.07,SSE,160,0.0,6.0,76,0.00,,---,0.00,VWS V14.01,2013-07-30 15:00:00,
2013-07-30 10:30:00,69.3,60.3,30.07,SE,139,0.0,5.0,73,0.00,,---,0.00,VWS V14.01,2013-07-30 15:30:00,
2013-07-30 11:00:00,70.7,60.5,30.08,ESE,116,0.0,10.0,70,0.00,,---,0.00,VWS V14.01,2013-07-30 16:00:00,
2013-07-30 11:30:00,71.7,61.4,30.07,SE,131,0.0,8.0,70,0.00,,---,0.00,VWS V14.01,2013-07-30 16:30:00,
2013-07-30 12:00:00,73.0,61.4,30.06,SE,131,2.0,7.0,67,0.00,,---,0.00,VWS V14.01,2013-07-30 17:00:00,
2013-07-30 12:30:00,74.2,62.5,30.05,SSW,192,0.0,11.0,67,0.00,,---,0.00,VWS V14.01,2013-07-30 17:30:00,
2013-07-30 13:00:00,73.6,62.0,30.04,South,184,4.0,11.0,67,0.00,,---,0.00,VWS V14.01,2013-07-30 18:00:00,
2013-07-30 13:30:00,73.2,62.0,30.03,SE,138,3.0,7.0,68,0.00,,---,0.00,VWS V14.01,2013-07-30 18:30:00,
2013-07-30 14:00:00,72.2,61.9,30.03,SE,127,3.0,14.0,70,0.00,,---,0.00,VWS V14.01,2013-07-30 19:00:00,
2013-07-30 14:30:00,71.6,61.7,30.02,ESE,117,0.0,12.0,71,0.00,,---,0.00,VWS V14.01,2013-07-30 19:30:00,
2013-07-30 15:00:00,71.0,61.5,30.02,SE,132,0.0,11.0,72,0.00,,---,0.00,VWS V14.01,2013-07-30 20:00:00,
2013-07-30 15:30:00,71.3,62.2,30.01,SSE,152,4.0,11.0,73,0.00,,---,0.00,VWS V14.01,2013-07-30 20:30:00,
2013-07-30 16:00:00,70.6,61.9,30.01,SE,135,0.0,9.0,74,0.00,,---,0.00,VWS V14.01,2013-07-30 21:00:00,
2013-07-30 16:30:00,68.7,62.3,30.02,ESE,108,0.0,10.0,80,0.00,,---,0.00,VWS V14.01,2013-07-30 21:30:00,
2013-07-30 17:00:00,67.5,61.5,30.02,SE,124,0.0,10.0,81,0.00,,---,0.00,VWS V14.01,2013-07-30 22:00:00,
2013-07-30 17:30:00,65.5,60.9,30.03,SSW,201,0.0,7.0,85,0.00,,---,0.00,VWS V14.01,2013-07-30 22:30:00,
2013-07-30 18:00:00,63.8,60.5,30.03,South,173,0.0,5.0,89,0.03,,---,0.03,VWS V14.01,2013-07-30 23:00:00,
2013-07-30 18:30:00,62.9,60.5,30.03,South,180,0.0,5.0,92,0.04,,---,0.04,VWS V14.01,2013-07-30 23:30:00,
2013-07-30 19:00:00,62.5,60.2,30.02,ESE,123,0.0,4.0,92,0.05,,---,0.05,VWS V14.01,2013-07-31 00:00:00,
2013-07-30 19:30:00,62.3,60.0,30.01,ESE,123,0.0,0.0,92,0.03,,---,0.06,VWS V14.01,2013-07-31 00:30:00,
2013-07-30 20:00:00,62.2,60.2,30.00,SE,128,0.0,0.0,93,0.02,,---,0.06,VWS V14.01,2013-07-31 01:00:00,
2013-07-30 20:30:00,62.2,60.5,30.00,SE,128,0.0,0.0,94,0.01,,---,0.06,VWS V14.01,2013-07-31 01:30:00,
2013-07-30 21:00:00,62.2,60.5,30.01,SE,128,0.0,0.0,94,0.00,,---,0.06,VWS V14.01,2013-07-31 02:00:00,
2013-07-30 21:30:00,62.8,61.0,30.00,SE,128,0.0,0.0,94,0.00,,---,0.06,VWS V14.01,2013-07-31 02:30:00,
2013-07-30 22:00:00,62.5,60.5,30.01,SE,128,0.0,0.0,93,0.00,,---,0.06,VWS V14.01,2013-07-31 03:00:00,
2013-07-30 22:30:00,62.5,60.5,30.00,SE,128,0.0,0.0,93,0.00,,---,0.06,VWS V14.01,2013-07-31 03:30:00,
2013-07-30 23:00:00,62.2,60.2,30.00,SE,128,0.0,0.0,93,0.01,,---,0.07,VWS V14.01,2013-07-31 04:00:00,
2013-07-30 23:30:00,61.9,60.2,29.99,SE,128,0.0,0.0,94,0.02,,---,0.08,VWS V14.01,2013-07-31 04:30:00,